Location: Auckland
(36.8670°S, 174.7670°E)
Time: 08:58:47
(UTC+12:00)

Tiros 1 despin weight - Pass Details

Date: 24 July 2019
Orbit: 594 x 642 km, 48.2° (Epoch: 24 August)

Event Time Altitude Azimuth Distance (km) Brightness Sun altitude
Rises 06:12:20 0° 242° (WSW) 2,880 - -14.8°
Reaches altitude 10° 06:14:45 10° 250° (WSW) 1,977 - -14.3°
Exits shadow 06:16:37 22° 264° (W) 1,365 ? -13.9°
Maximum altitude 06:18:56 37° 317° (NW) 970 ? -13.5°
Drops below altitude 10° 06:23:08 10° 24° (NNE) 1,987 ? -12.7°
Sets 06:25:35 0° 32° (NNE) 2,895 ? -12.2°
